K8RLH Weather Reports


time (UTC)temp
C
wind
direction
speed
KPH
gust
KPH
rain 1hr
cm
rain 24hr
cm
rain mn
cm
humidity
%
barometer
mb
20260906072244 22 203 0.0 0.0 0.00 0.00 0.00 93 1013.6
20260906071740 22 203 0.0 0.0 0.00 0.00 0.00 93 1013.7
20260906071240 22 204 0.0 0.0 0.00 0.00 0.00 93 1013.5
20260906070737 22 205 0.0 0.0 0.00 0.00 0.00 93 1013.7
20260906070232 22 206 0.0 0.0 0.00 0.00 0.00 93 1013.8
20260906065732 22 170 0.0 0.0 0.00 0.00 0.00 93 1013.6
20260906065227 22 169 0.0 0.0 0.00 0.00 0.00 93 1013.6
20260906064723 22 169 0.0 0.0 0.00 0.00 0.00 93 1013.7
20260906064218 22 170 0.0 0.0 0.00 0.00 0.00 93 1013.5
20260906063713 22 171 0.0 0.0 0.00 0.00 0.00 93 1013.6
20260906063209 22 171 0.0 0.0 0.00 0.00 0.00 93 1013.7
20260906062704 22 171 0.0 0.0 0.00 0.00 0.00 92 1014.0
20260906062203 22 171 0.0 0.0 0.00 0.00 0.00 92 1014.0
20260906061659 22 156 0.0 0.0 0.00 0.00 0.00 92 1014.4
20260906061155 22 156 0.0 0.0 0.00 0.00 0.00 92 1014.5
20260906060651 22 156 0.0 0.0 0.00 0.00 0.00 92 1014.4
20260906060148 22 156 0.0 0.0 0.00 0.00 0.00 91 1014.6
20260906055643 22 156 0.0 0.0 0.00 0.00 0.00 91 1014.6
20260906055138 22 157 0.0 0.0 0.00 0.00 0.00 91 1014.6
20260906054633 22 157 0.0 0.0 0.00 0.00 0.00 91 1014.7
20260906054128 22 157 0.0 0.0 0.00 0.00 0.00 91 1014.8
20260906053625 22 157 0.0 0.0 0.00 0.00 0.00 91 1014.8
20260906053120 22 156 0.0 0.0 0.00 0.00 0.00 90 1014.9
20260906052615 22 156 0.0 0.0 0.00 0.00 0.00 91 1014.9
20260906052112 22 155 0.0 0.0 0.00 0.00 0.00 91 1014.9
20260906051608 22 155 0.0 0.0 0.00 0.00 0.00 92 1014.9
20260906051103 22 3 0.0 0.0 0.00 0.00 0.00 91 1014.9
20260906050558 22 3 0.0 0.0 0.00 0.00 0.00 91 1014.9
20260906050053 22 2 0.0 0.0 0.00 0.00 0.00 91 1014.9
20260906045551 22 2 0.0 0.0 0.00 0.00 0.00 90 1014.9
20260906045047 22 2 0.0 0.0 0.00 0.00 0.00 90 1014.9
20260906044543 22 2 0.0 0.0 0.00 0.00 0.00 89 1014.9
20260906044038 23 2 0.0 0.0 0.00 0.00 0.00 89 1014.8
20260906043533 23 2 0.0 0.0 0.00 0.00 0.00 88 1014.7
20260906043030 23 2 0.0 0.0 0.00 0.00 0.00 88 1014.6
20260906042528 23 357 1.6 3.2 0.00 0.00 0.00 89 1014.6
20260906042023 22 83 1.6 1.6 0.00 0.00 0.00 89 1014.8
20260906041519 23 94 0.0 0.0 0.00 0.00 0.00 88 1014.9
20260906041019 23 94 0.0 0.0 0.00 0.00 0.00 88 1014.9
20260906040514 23 112 1.6 1.6 0.00 0.00 0.00 88 1014.9
20260906040010 23 113 0.0 0.0 0.00 0.13 0.13 88 1014.9
20260906035504 23 113 0.0 0.0 0.00 0.13 0.13 87 1014.9
20260906035000 23 113 0.0 0.0 0.00 0.13 0.13 87 1014.9
20260906034500 23 123 0.0 1.6 0.00 0.13 0.13 87 1014.9
20260906033955 23 143 0.0 0.0 0.00 0.13 0.13 86 1014.9
20260906033450 23 143 0.0 0.0 0.00 0.13 0.13 86 1014.9
20260906032946 23 141 0.0 0.0 0.00 0.13 0.13 85 1014.9
20260906032443 23 141 0.0 0.0 0.00 0.13 0.13 85 1014.9
20260906031942 23 165 0.0 0.0 0.00 0.13 0.13 84 1014.9
20260906031438 23 165 1.6 1.6 0.00 0.13 0.13 84 1014.9
20260906030933 23 163 0.0 1.6 0.00 0.13 0.13 84 1014.9
20260906030428 23 158 0.0 6.4 0.00 0.13 0.13 84 1014.9
20260906025922 23 219 0.0 0.0 0.00 0.13 0.13 84 1014.5
20260906025416 23 218 0.0 0.0 0.00 0.13 0.13 84 1014.5
20260906024915 23 219 0.0 1.6 0.00 0.13 0.13 84 1014.5
20260906024415 23 218 0.0 0.0 0.00 0.13 0.13 84 1014.9
20260906023910 23 218 0.0 0.0 0.00 0.13 0.13 84 1014.7
20260906023406 23 218 0.0 0.0 0.00 0.13 0.13 84 1014.7
20260906022901 23 218 0.0 0.0 0.00 0.13 0.13 84 1014.5
20260906022401 23 218 0.0 0.0 0.00 0.13 0.13 83 1014.8
20260906021857 23 218 0.0 0.0 0.00 0.13 0.13 82 1014.6
20260906021356 24 218 0.0 0.0 0.00 0.13 0.13 81 1015.2
20260906020851 24 218 0.0 0.0 0.00 0.13 0.13 80 1015.2
20260906020350 24 218 0.0 0.0 0.00 0.13 0.13 79 1015.2
20260906015845 24 248 1.6 1.6 0.00 0.13 0.13 79 1015.2
20260906015345 24 244 1.6 3.2 0.00 0.13 0.13 80 1015.2
20260906014845 24 247 1.6 1.6 0.00 0.13 0.13 79 1015.2
20260906014344 24 216 0.0 1.6 0.00 0.13 0.13 80 1015.2
20260906013841 24 214 3.2 3.2 0.00 0.13 0.13 81 1014.8
20260906013336 23 192 1.6 3.2 0.00 0.13 0.13 83 1014.8
20260906012832 24 150 1.6 1.6 0.00 0.13 0.13 83 1014.8
20260906012327 24 11 0.0 0.0 0.00 0.13 0.13 83 1014.8
20260906011826 24 11 0.0 0.0 0.00 0.13 0.13 83 1014.6
20260906011321 24 11 0.0 0.0 0.00 0.13 0.13 82 1014.5
20260906010817 24 11 0.0 0.0 0.00 0.13 0.13 82 1014.5
20260906010313 24 11 0.0 0.0 0.00 0.13 0.13 82 1014.5
20260906005808 25 11 0.0 0.0 0.00 0.13 0.13 82 1014.5
20260906005307 25 12 0.0 0.0 0.00 0.13 0.13 81 1014.6
20260906004806 25 12 0.0 0.0 0.00 0.13 0.13 80 1014.3
20260906004307 25 11 0.0 0.0 0.00 0.13 0.13 80 1014.2
20260906003802 25 11 0.0 1.6 0.00 0.13 0.13 79 1014.2
20260906003257 25 21 1.6 1.6 0.00 0.13 0.13 79 1013.9
20260906002753 25 20 0.0 0.0 0.00 0.13 0.13 79 1013.8
20260906002252 25 20 0.0 1.6 0.00 0.13 0.13 78 1013.8
20260906001748 25 54 0.0 0.0 0.00 0.13 0.13 77 1014.0
20260906001248 25 87 1.6 1.6 0.00 0.13 0.13 76 1013.8
20260906000743 26 129 0.0 0.0 0.00 0.13 0.13 76 1013.8
20260906000238 26 127 0.0 0.0 0.00 0.13 0.13 75 1013.9
20260905235733 26 127 0.0 0.0 0.00 0.13 0.13 75 1014.1
20260905235232 26 139 1.6 1.6 0.00 0.13 0.13 77 1014.1
20260905234728 26 125 1.6 1.6 0.00 0.13 0.13 76 1014.0
20260905234223 26 127 0.0 0.0 0.00 0.13 0.13 77 1013.8
20260905233719 26 127 0.0 0.0 0.00 0.13 0.13 76 1013.9
20260905233218 26 127 0.0 1.6 0.00 0.13 0.13 76 1013.9
20260905232713 26 123 0.0 0.0 0.00 0.13 0.13 76 1013.8
20260905232209 26 93 1.6 1.6 0.00 0.13 0.13 75 1013.8
20260905231704 26 24 0.0 1.6 0.00 0.13 0.13 74 1013.8
20260905231200 26 51 1.6 1.6 0.00 0.13 0.13 74 1013.6
20260905230655 26 109 0.0 0.0 0.00 0.13 0.13 75 1013.5
20260905230153 26 27 0.0 0.0 0.00 0.13 0.13 73 1013.6
20260905225653 26 16 0.0 0.0 0.00 0.13 0.13 74 1013.7
20260905225148 26 16 0.0 1.6 0.00 0.13 0.13 74 1013.8
20260905224647 27 5 0.0 0.0 0.00 0.13 0.13 73 1013.8
20260905224142 26 0 0.0 1.6 0.00 0.13 0.13 72 1013.7
20260905223639 26 2 0.0 0.0 0.00 0.13 0.13 72 1013.8
20260905223135 26 2 0.0 0.0 0.00 0.13 0.13 73 1013.8
20260905222630 27 7 0.0 1.6 0.00 0.13 0.13 72 1014.0
20260905222125 26 1 0.0 1.6 0.00 0.13 0.13 72 1013.7
20260905221621 26 8 0.0 1.6 0.00 0.13 0.13 72 1013.7
20260905221118 26 355 1.6 1.6 0.00 0.13 0.13 73 1013.6
20260905220613 26 346 1.6 1.6 0.00 0.13 0.13 72 1013.9
20260905220109 26 71 0.0 0.0 0.00 0.13 0.13 74 1013.8
20260905215608 26 26 0.0 3.2 0.00 0.13 0.13 74 1013.8
20260905215104 26 255 1.6 1.6 0.00 0.13 0.13 76 1013.7
20260905214600 26 240 0.0 3.2 0.00 0.13 0.13 76 1013.8
20260905214055 26 247 3.2 6.4 0.00 0.13 0.13 77 1014.0
20260905213550 26 275 3.2 4.8 0.00 0.13 0.13 77 1014.0
20260905213045 26 8 0.0 1.6 0.00 0.13 0.13 79 1014.0
20260905212545 26 6 1.6 3.2 0.00 0.13 0.13 79 1014.1
20260905212044 25 43 0.0 1.6 0.00 0.13 0.13 80 1014.2
20260905211540 25 90 0.0 1.6 0.00 0.13 0.13 79 1014.2
20260905211036 25 350 0.0 1.6 0.00 0.13 0.13 79 1014.2
20260905210532 25 14 0.0 1.6 0.00 0.13 0.13 81 1014.2
20260905210032 25 355 0.0 1.6 0.00 0.13 0.13 80 1014.2
20260905205531 25 247 1.6 3.2 0.00 0.13 0.13 79 1014.2
20260905205030 25 274 1.6 1.6 0.00 0.13 0.13 78 1014.3
20260905204525 25 192 0.0 1.6 0.00 0.13 0.13 79 1014.3
20260905204020 25 125 0.0 0.0 0.00 0.13 0.13 77 1014.3
20260905203515 25 125 0.0 0.0 0.00 0.13 0.13 79 1014.2
20260905203010 25 107 0.0 0.0 0.00 0.13 0.13 77 1014.2
20260905202511 25 103 1.6 1.6 0.00 0.13 0.13 77 1014.3
20260905202006 25 123 0.0 1.6 0.00 0.13 0.13 76 1014.1
20260905201501 25 112 1.6 4.8 0.00 0.13 0.13 77 1014.0
20260905201001 24 125 1.6 3.2 0.00 0.13 0.13 78 1014.1
20260905200457 24 131 3.2 6.4 0.00 0.13 0.13 78 1014.3
20260905195955 24 104 1.6 6.4 0.00 0.13 0.13 79 1014.7
20260905195450 23 125 3.2 11.3 0.13 0.13 0.13 79 1014.8
20260905194946 24 63 1.6 6.4 0.43 0.13 0.13 81 1014.7
20260905194445 25 71 1.6 3.2 0.43 0.08 0.08 79 1014.7
20260905193940 26 60 1.6 9.7 0.30 0.05 0.05 73 1014.5
20260905193440 28 311 4.8 6.4 0.00 0.00 0.00 66 1014.7
20260905192935 29 58 4.8 12.9 0.00 0.00 0.00 59 1014.5
20260905192431 30 46 4.8 11.3 0.00 0.00 0.00 59 1014.6
20260905191926 31 357 3.2 11.3 0.00 0.00 0.00 57 1014.7
20260905191420 35 359 6.4 12.9 0.00 0.00 0.00 51 1014.2
20260905190920 36 37 1.6 1.6 0.00 0.00 0.00 42 1013.6
20260905190417 36 48 1.6 4.8 0.00 0.00 0.00 44 1013.6
20260905185916 36 151 1.6 3.2 0.00 0.00 0.00 43 1013.5
20260905185412 37 61 3.2 6.4 0.00 0.00 0.00 42 1013.3
20260905184911 37 51 1.6 3.2 0.00 0.00 0.00 43 1013.3
20260905184411 37 101 1.6 4.8 0.00 0.00 0.00 43 1013.2
20260905183909 37 136 1.6 3.2 0.00 0.00 0.00 42 1013.5
20260905183404 37 148 1.6 3.2 0.00 0.00 0.00 42 1013.2
20260905182859 37 85 0.0 3.2 0.00 0.00 0.00 42 1013.4
20260905182358 36 32 3.2 9.7 0.00 0.00 0.00 42 1013.6
20260905181854 36 320 0.0 6.4 0.00 0.00 0.00 44 1013.7
20260905181354 36 113 1.6 4.8 0.00 0.00 0.00 44 1013.8
20260905180853 36 238 1.6 3.2 0.00 0.00 0.00 42 1014.1
20260905180349 36 57 1.6 4.8 0.00 0.00 0.00 42 1014.2
20260905175844 36 38 1.6 3.2 0.00 0.00 0.00 43 1014.2
20260905175343 36 51 3.2 4.8 0.00 0.00 0.00 43 1014.4
20260905174839 35 82 6.4 9.7 0.00 0.00 0.00 44 1014.5
20260905174334 35 164 3.2 3.2 0.00 0.00 0.00 44 1014.3
20260905173830 35 72 1.6 4.8 0.00 0.00 0.00 44 1014.5
20260905173326 35 50 3.2 4.8 0.00 0.00 0.00 46 1014.5
20260905172826 35 158 3.2 6.4 0.00 0.00 0.00 48 1014.6
20260905172324 35 169 3.2 4.8 0.00 0.00 0.00 47 1014.6
20260905171820 35 143 0.0 4.8 0.00 0.00 0.00 47 1014.4
20260905171317 35 116 1.6 4.8 0.00 0.00 0.00 47 1014.5
20260905170813 35 89 3.2 4.8 0.00 0.00 0.00 46 1014.6
20260905170308 35 246 3.2 4.8 0.00 0.00 0.00 47 1014.8
20260905165807 35 152 0.0 1.6 0.00 0.00 0.00 48 1014.8
20260905165306 35 67 1.6 4.8 0.00 0.00 0.00 48 1015.3
20260905164803 35 247 4.8 4.8 0.00 0.00 0.00 49 1015.3
20260905164258 35 168 0.0 1.6 0.00 0.00 0.00 49
20260905163753 35 134 0.0 3.2 0.00 0.00 0.00 50 1016.4
20260905163250 35 315 0.0 4.8 0.00 0.00 0.00 50 1016.4
20260905162746 35 114 0.0 3.2 0.00 0.00 0.00 49 1016.4
20260905162245 35 314 0.0 4.8 0.00 0.00 0.00 51 1016.4
20260905161740 34 349 1.6 4.8 0.00 0.00 0.00 51 1016.4
20260905161239 34 223 1.6 4.8 0.00 0.00 0.00 52 1016.4
20260905160737 34 206 3.2 3.2 0.00 0.00 0.00 52 1016.4
20260905160231 33 262 1.6 3.2 0.00 0.00 0.00 54 1016.4
20260905155727 34 269 3.2 4.8 0.00 0.00 0.00 51 1016.4
20260905155225 33 64 1.6 1.6 0.00 0.00 0.00 55 1016.4
20260905154720 33 348 3.2 3.2 0.00 0.00 0.00 56 1016.4
20260905154216 32 78 1.6 1.6 0.00 0.00 0.00 58 1016.4
20260905153711 33 289 1.6 6.4 0.00 0.00 0.00 57
20260905153206 32 174 1.6 1.6 0.00 0.00 0.00 59
20260905152701 32 170 0.0 1.6 0.00 0.00 0.00 59
20260905152155 32 272 3.2 4.8 0.00 0.00 0.00 59
20260905151650 32 351 1.6 11.3 0.00 0.00 0.00 61
20260905151146 32 131 0.0 4.8 0.00 0.00 0.00 61
20260905150641 31 41 0.0 3.2 0.00 0.00 0.00 62
20260905150139 31 223 1.6 3.2 0.00 0.00 0.00 64
20260905145638 31 261 4.8 6.4 0.00 0.00 0.00 64
20260905145137 31 255 8.0 9.7 0.00 0.00 0.00 63
20260905144632 31 239 6.4 6.4 0.00 0.00 0.00 63
20260905144131 31 353 0.0 3.2 0.00 0.00 0.00 65
20260905143626 30 251 3.2 6.4 0.00 0.00 0.00 66
20260905143125 31 269 6.4 9.7 0.00 0.00 0.00 66
20260905142624 30 246 0.0 4.8 0.00 0.00 0.00 66
20260905142119 30 234 1.6 3.2 0.00 0.00 0.00 67
20260905141618 30 79 0.0 4.8 0.00 0.00 0.00 69
20260905141116 30 253 6.4 6.4 0.00 0.00 0.00 68
20260905140616 30 256 0.0 3.2 0.00 0.00 0.00 70
20260905140115 29 13 4.8 4.8 0.00 0.00 0.00 70
20260905135610 29 246 1.6 4.8 0.00 0.00 0.00 71
20260905135105 28 237 1.6 4.8 0.00 0.00 0.00 72
20260905134600 28 239 1.6 4.8 0.00 0.00 0.00 73 1017.0
20260905134059 28 262 3.2 9.7 0.00 0.00 0.00 73 1017.0
20260905133554 28 212 3.2 6.4 0.00 0.00 0.00 76 1017.0
20260905133048 27 253 4.8 6.4 0.00 0.00 0.00 78 1017.0
20260905132549 27 219 1.6 4.8 0.00 0.00 0.00 78 1017.0
20260905132049 27 230 3.2 6.4 0.00 0.00 0.00 80 1017.0
20260905131544 27 207 3.2 4.8 0.00 0.00 0.00 81 1017.0
20260905131039 27 252 0.0 4.8 0.00 0.00 0.00 81 1017.0
20260905130538 26 253 3.2 4.8 0.00 0.00 0.00 81 1017.0
20260905130034 26 262 3.2 3.2 0.00 0.00 0.00 83 1017.0
20260905125533 26 250 3.2 4.8 0.00 0.00 0.00 84 1017.0
20260905125029 26 249 3.2 4.8 0.00 0.00 0.00 84 1017.0
20260905124525 26 248 1.6 6.4 0.00 0.00 0.00 85 1016.7
20260905124021 25 240 6.4 6.4 0.00 0.00 0.00 85 1016.7
20260905123517 25 235 3.2 4.8 0.00 0.00 0.00 86 1016.9
20260905123013 25 241 3.2 4.8 0.00 0.00 0.00 86 1016.7
20260905122508 25 228 3.2 3.2 0.00 0.00 0.00 88 1016.9
20260905122003 24 215 0.0 1.6 0.00 0.00 0.00 89 1016.7
20260905121457 24 234 0.0 3.2 0.00 0.00 0.00 90 1016.7
20260905120957 23 239 1.6 3.2 0.00 0.00 0.00 90 1016.8
20260905120451 23 233 3.2 3.2 0.00 0.00 0.00 91 1016.6
20260905115946 23 190 0.0 0.0 0.00 0.00 0.00 91 1016.4
20260905115446 23 189 0.0 0.0 0.00 0.00 0.00 92 1016.5
20260905114941 23 189 0.0 0.0 0.00 0.00 0.00 92 1016.5
20260905114440 23 190 0.0 0.0 0.00 0.00 0.00 92 1016.5
20260905113939 23 190 0.0 0.0 0.00 0.00 0.00 92 1016.4
20260905113434 23 190 0.0 0.0 0.00 0.00 0.00 92 1016.3
20260905112930 23 190 0.0 0.0 0.00 0.00 0.00 92 1016.3
20260905112425 23 190 0.0 0.0 0.00 0.00 0.00 92 1016.0
20260905111920 23 190 0.0 0.0 0.00 0.00 0.00 92 1016.1
20260905111419 23 190 0.0 1.6 0.00 0.00 0.00 92 1015.9
20260905110915 23 190 0.0 1.6 0.00 0.00 0.00 92 1016.0
20260905110414 23 189 0.0 1.6 0.00 0.00 0.00 92 1016.1
20260905105909 23 188 0.0 0.0 0.00 0.00 0.00 92 1015.9
20260905105409 23 188 0.0 0.0 0.00 0.00 0.00 92 1015.9
20260905104908 23 188 0.0 0.0 0.00 0.00 0.00 91 1015.7
20260905104405 23 188 0.0 0.0 0.00 0.00 0.00 91 1015.6
20260905103904 23 188 0.0 0.0 0.00 0.00 0.00 91 1015.6
20260905103400 23 188 0.0 0.0 0.00 0.00 0.00 91 1015.6
20260905102856 23 188 0.0 0.0 0.00 0.00 0.00 91 1015.6
20260905102352 23 184 0.0 0.0 0.00 0.00 0.00 91 1015.5
20260905101852 23 184 0.0 0.0 0.00 0.00 0.00 91 1015.5
20260905101350 23 184 0.0 0.0 0.00 0.00 0.00 90 1015.4
20260905100845 23 184 0.0 0.0 0.00 0.00 0.00 90 1015.5
20260905100341 23 184 0.0 0.0 0.00 0.00 0.00 90 1015.7
20260905095840 23 183 0.0 0.0 0.00 0.00 0.00 90 1015.8
20260905095340 23 183 0.0 0.0 0.00 0.00 0.00 89 1015.6
20260905094835 23 184 0.0 0.0 0.00 0.00 0.00 89 1015.6
20260905094331 23 195 0.0 0.0 0.00 0.00 0.00 89 1015.6
20260905093830 23 196 1.6 1.6 0.00 0.00 0.00 89 1015.6
20260905093326 23 193 1.6 1.6 0.00 0.00 0.00 89 1015.5
20260905092821 23 180 0.0 0.0 0.00 0.00 0.00 88 1015.6
20260905092321 23 179 0.0 0.0 0.00 0.00 0.00 88 1015.6
20260905091816 23 180 0.0 0.0 0.00 0.00 0.00 88 1015.5
20260905091316 23 172 1.6 1.6 0.00 0.00 0.00 88 1015.5
20260905090815 23 164 0.0 1.6 0.00 0.00 0.00 88 1015.4
20260905090311 23 164 0.0 1.6 0.00 0.00 0.00 88 1015.6
20260905085810 23 164 0.0 0.0 0.00 0.00 0.00 88 1015.7
20260905085310 23 164 0.0 0.0 0.00 0.00 0.00 88 1015.6
20260905084806 23 163 0.0 0.0 0.00 0.00 0.00 87 1015.8
20260905084305 23 163 0.0 0.0 0.00 0.00 0.00 87 1015.8
20260905083800 23 163 0.0 0.0 0.00 0.00 0.00 87 1015.9
20260905083256 23 163 0.0 0.0 0.00 0.00 0.00 87 1015.9
20260905082752 23 163 0.0 0.0 0.00 0.00 0.00 87 1015.6
20260905082248 24 163 0.0 0.0 0.00 0.00 0.00 87 1015.8
20260905081748 24 163 0.0 0.0 0.00 0.00 0.00 86 1015.8
20260905081243 24 163 0.0 0.0 0.00 0.00 0.00 85 1015.9
20260905080742 24 163 0.0 0.0 0.00 0.00 0.00 85 1015.7
20260905080236 25 194 0.0 0.0 0.00 0.00 0.00 84 1015.9
20260905075735 25 194 0.0 1.6 0.00 0.00 0.00 84 1015.9
20260905075234 25 222 1.6 1.6 0.00 0.00 0.00 85 1015.9
20260905074733 25 245 1.6 3.2 0.00 0.00 0.00 85 1015.9
20260905074230 25 238 1.6 1.6 0.00 0.00 0.00 84 1016.0
20260905073725 25 249 1.6 3.2 0.00 0.00 0.00 84 1016.0
20260905073220 25 199 0.0 1.6 0.00 0.00 0.00 84 1016.0
20260905072719 25 197 0.0 1.6 0.00 0.00 0.00 83 1015.8